星链-3005 (STARLINK-3005 )

导读

STARLINK-3005是美国SpaceX星链项目的低轨卫星,于2021年6月30日发射升空,属于星链星座组网卫星。它依托星链系统,为全球提供低延迟高速互联网服务,尤其覆盖偏远、网络基础设施匮乏区域,参与构建全球覆盖的低轨卫星通信网络,推动卫星互联网普及应用。

Basic Information
目录编号:
48881
目录名称:
STARLINK-3005
国际标识:
2021-059C
轨道中心:
EARTH
卫星名称:
星链-3005
卫星全名:
星链-3005 (STARLINK-3005 )
卫星状态:
在轨 (已飞行1899 天)
发射日期:
2021-06-30 UTC
国别 :
美国 (US)
星等 :
--
This satellite is enrolled in the Space Conjunction Data Service (SCDS) and the current flight risk assessment level is: No High Risk
Orbit Information
数据来源 国际轨道数据
星历时间: 2026-09-10T21:49:15+0800
18小时前
查看轨道信息
半长轴: 6941.124km
偏心率: 0.0001129
轨道倾角: 97.284°
近地点辐角 99.604°
升交点赤经 14.527°
平近点角 260.531°
近地点: 562.203km
远地点: 563.771km
周期: 95.919分钟
每日圈数: 15.012676
Detailed Information
固有亮度:
5
最大亮度:
2.5
卫星平台:
Starlink v1.5
覆盖范围:
全球
运营商:
太空探索技术公司
运营商所在国:
美国
制造商(研发单位):
太空探索技术公司
制造商所在国:
美国
使用方式:
暂无
Satellite Introduction
星链(Starlink)计划是由太空探索技术公司(SpaceX)提出的一个巨型低轨卫星互联网星座项目,计划在2019年至2024年间在太空搭建由约1.2万颗卫星组成的“星链”网络,其中1584颗将部署在地球上空550千米处的近地轨道,并从2020年开始工作。该卫星仍在工作。
2D Orbit Map
3D Orbit Map
Orbit Altitude Analysis Chart
Orbit Inclination Analysis Chart
Orbit Comprehensive Analysis Chart
View Comprehensive Chart
Conjunction Data List
Event ID Objects TCA Miss Dist (km) Collision Risk Probability Collision Risk Index (CRI) Action
CDM_260906-155104-888106-678522
2026-09-06T
15:51:27+0000
0.552 km
远距离
9.944135E-5 中风险 0.75
CDM_260912-203903-718004-888125
2026-09-12T
20:39:38+0000
1.206 km
极远距离
1.266651E-5 中风险 0.57
Miss Distance Evolution Trend with All Objects
Collision Probability Evolution Trend with All Objects